Weather in Dagomis

Russia / Krasnodar Krai     43°39′37″N   39°39′26″E
temp.,
°C
wind,
m/s
gust,
m/s
humid.,
%
clouds,
%
prec.,
mm/h
press.,
hPa
HPBL,
m
17 september, fri
fri1700:00+15ene1192100 0.3 101321
03:00+15ne1194100 0.9 101322
06:00+15nne219399 0.4 101324
09:00+16nw0093100 0.5 101359
12:00+17e019299 0.4 1013176
15:00+17wnw129275 1.3 1014321
18:00+16w009834 1.2 101540
21:00+14ne219617 2.3 101520
18 september, sat
sat1800:00+13ne229487 0.1 101628
03:00+13ene229496 0.1 101530
06:00+13ene22927 0.0 101528
09:00+18se237648 0.0 1015433
12:00+19sse247276 0.0 1015790
15:00+20ssw227189 0.0 1015774
18:00+16nw009314 0.0 101415
21:00+15ne22889 0.0 101527
19 september, sun
sun1900:00+15ene22808 0.0 101434
03:00+16ne2270100 0.0 101427
06:00+15ne227024 0.0 101427
09:00+20sse0157100 0.0 1014257
12:00+20nne1169100 0.1 1014105
15:00+23sse1350100 0.1 1013861
18:00+16ne2390100 0.6 101447
21:00+15ene338777 0.8 101548
20 september, mon
mon2000:00+15ne327957 0.0 101531
03:00+16ene2273100 0.0 101432
06:00+14ene3494100 3.3 101559
09:00+16ene2391100 4.2 101549
12:00+20ese127189 0.4 1014225
15:00+20sse1176100 0.6 1014218
18:00+17ne218695 0.7 101418
21:00+15ene228665 0.8 101622
21 september, tue
tue2100:00+14ene229123 0.6 101722
03:00+14ene229317 2.6 101737
06:00+14ne219449 1.9 101828
09:00+17ssw018634 2.8 1018125
12:00+18ssw12835 2.4 1019471
15:00+20ssw226114 3.0 1018981
18:00+15ene009097 0.0 101815
21:00+14ne2285100 0.0 101832